CTV792 WIII-WAHS

Flight info

Callsign CTV792
Flight time 0h 43m
Altitude 27000
Route CA
Aircraft A320/M-SDE2E3FGHIRWY/LB1

Departure

Time 2026-04-22 09:40
Airport Soekarno-Hatta International Airport (WIII)

Arrival

Time 2026-04-22 10:23
Airport Jenderal Ahmad Yani Airport (WAHS)
Time Latitude Longitude Altitude Speed Heading
2026-04-22 09:17 -6.13206 106.65147 38 ft 0 kts 56°
2026-04-22 09:28 -6.13213 106.65137 38 ft 4 kts 55°
2026-04-22 09:28 -6.13225 106.65119 38 ft 4 kts 56°
2026-04-22 09:28 -6.13233 106.65098 38 ft 4 kts 116°
2026-04-22 09:29 -6.13216 106.65083 38 ft 3 kts 150°
2026-04-22 09:29 -6.13213 106.65081 36 ft 0 kts 150°
2026-04-22 09:32 -6.13228 106.65090 36 ft 5 kts 150°
2026-04-22 09:32 -6.13270 106.65123 38 ft 12 kts 132°
2026-04-22 09:32 -6.13335 106.65197 37 ft 14 kts 147°
2026-04-22 09:33 -6.13416 106.65234 38 ft 12 kts 159°
2026-04-22 09:33 -6.13496 106.65265 38 ft 13 kts 159°
2026-04-22 09:33 -6.13575 106.65296 38 ft 11 kts 158°
2026-04-22 09:33 -6.13648 106.65331 37 ft 11 kts 136°
2026-04-22 09:34 -6.13649 106.65394 39 ft 9 kts 69°
2026-04-22 09:34 -6.13621 106.65466 38 ft 15 kts 68°
2026-04-22 09:34 -6.13577 106.65574 36 ft 18 kts 68°
2026-04-22 09:35 -6.13479 106.65820 38 ft 20 kts 68°
2026-04-22 09:35 -6.13426 106.65954 36 ft 20 kts 68°
2026-04-22 09:35 -6.13372 106.66090 39 ft 21 kts 68°
2026-04-22 09:35 -6.13314 106.66233 39 ft 23 kts 68°
2026-04-22 09:36 -6.13255 106.66379 39 ft 23 kts 68°
2026-04-22 09:36 -6.13200 106.66517 38 ft 19 kts 68°
2026-04-22 09:36 -6.13150 106.66645 36 ft 20 kts 68°
2026-04-22 09:36 -6.13099 106.66770 39 ft 19 kts 68°
2026-04-22 09:37 -6.13049 106.66896 38 ft 20 kts 68°
2026-04-22 09:37 -6.12995 106.67032 39 ft 21 kts 68°
2026-04-22 09:37 -6.12945 106.67157 37 ft 16 kts 68°
2026-04-22 09:37 -6.12903 106.67263 39 ft 16 kts 68°
2026-04-22 09:38 -6.12869 106.67362 39 ft 13 kts 85°
2026-04-22 09:38 -6.12908 106.67423 37 ft 10 kts 156°
2026-04-22 09:38 -6.12977 106.67423 40 ft 10 kts 186°
2026-04-22 09:38 -6.13035 106.67417 40 ft 7 kts 206°
2026-04-22 09:39 -6.13050 106.67383 40 ft 5 kts 248°
2026-04-22 09:39 -6.13112 106.67222 40 ft 58 kts 249°
2026-04-22 09:39 -6.13345 106.66635 41 ft 120 kts 248°
2026-04-22 09:39 -6.13726 106.65693 41 ft 169 kts 248°
2026-04-22 09:40 -6.14179 106.64568 585 ft 171 kts 250°
2026-04-22 09:40 -6.14629 106.63463 1301 ft 170 kts 251°
2026-04-22 09:40 -6.15070 106.62355 1863 ft 174 kts 251°
2026-04-22 09:40 -6.15542 106.61161 2136 ft 195 kts 250°
2026-04-22 09:41 -6.16071 106.59825 2348 ft 218 kts 250°
2026-04-22 09:41 -6.16655 106.58354 2846 ft 231 kts 249°
2026-04-22 09:41 -6.17253 106.56851 3618 ft 232 kts 248°
2026-04-22 09:41 -6.17858 106.55336 4397 ft 235 kts 248°
2026-04-22 09:42 -6.18471 106.53803 5145 ft 238 kts 248°
2026-04-22 09:42 -6.19247 106.52330 5879 ft 241 kts 227°
2026-04-22 09:42 -6.20644 106.51407 6570 ft 246 kts 196°
2026-04-22 09:42 -6.22345 106.51368 7263 ft 250 kts 165°
2026-04-22 09:43 -6.23986 106.51985 7957 ft 253 kts 159°
2026-04-22 09:43 -6.25562 106.52797 8622 ft 258 kts 141°
2026-04-22 09:43 -6.26670 106.54218 9249 ft 263 kts 113°
2026-04-22 09:43 -6.27024 106.55992 9883 ft 267 kts 86°
2026-04-22 09:44 -6.26556 106.57797 10455 ft 274 kts 65°
2026-04-22 09:44 -6.25938 106.59683 10620 ft 298 kts 85°
2026-04-22 09:44 -6.26255 106.61801 10796 ft 320 kts 111°
2026-04-22 09:44 -6.27282 106.63873 10915 ft 343 kts 121°
2026-04-22 09:45 -6.28610 106.65926 11285 ft 355 kts 123°
2026-04-22 09:45 -6.29893 106.68072 11870 ft 360 kts 119°
2026-04-22 09:45 -6.31009 106.70337 12489 ft 364 kts 112°
2026-04-22 09:45 -6.31923 106.72720 13086 ft 367 kts 108°
2026-04-22 09:46 -6.32730 106.75183 13683 ft 370 kts 107°
2026-04-22 09:46 -6.33495 106.77665 14273 ft 373 kts 106°
2026-04-22 09:46 -6.34271 106.80167 14837 ft 376 kts 107°
2026-04-22 09:46 -6.35081 106.82679 15402 ft 379 kts 107°
2026-04-22 09:47 -6.35927 106.85194 15953 ft 382 kts 108°
2026-04-22 09:47 -6.36803 106.87731 16490 ft 385 kts 108°
2026-04-22 09:47 -6.37693 106.90275 17016 ft 387 kts 108°
2026-04-22 09:47 -6.38590 106.92836 17525 ft 390 kts 108°
2026-04-22 09:48 -6.39492 106.95415 18008 ft 392 kts 108°
2026-04-22 09:48 -6.40385 106.97975 18496 ft 395 kts 108°
2026-04-22 09:48 -6.41294 107.00588 18962 ft 397 kts 108°
2026-04-22 09:48 -6.42210 107.03219 19411 ft 400 kts 108°
2026-04-22 09:49 -6.43129 107.05870 19836 ft 403 kts 108°
2026-04-22 09:49 -6.44049 107.08540 20257 ft 405 kts 108°
2026-04-22 09:49 -6.44976 107.11227 20663 ft 408 kts 108°
2026-04-22 09:49 -6.45912 107.13930 21052 ft 411 kts 108°
2026-04-22 09:50 -6.46855 107.16652 21440 ft 413 kts 108°
2026-04-22 09:50 -6.47802 107.19390 21817 ft 416 kts 108°
2026-04-22 09:50 -6.48757 107.22144 22183 ft 418 kts 108°
2026-04-22 09:50 -6.49719 107.24913 22537 ft 421 kts 108°
2026-04-22 09:51 -6.50686 107.27699 22881 ft 423 kts 108°
2026-04-22 09:51 -6.51655 107.30502 23221 ft 426 kts 108°
2026-04-22 09:51 -6.52628 107.33320 23552 ft 428 kts 108°
2026-04-22 09:51 -6.53606 107.36154 23873 ft 430 kts 108°
2026-04-22 09:52 -6.54588 107.39004 24184 ft 432 kts 108°
2026-04-22 09:52 -6.55578 107.41867 24499 ft 434 kts 108°
2026-04-22 09:52 -6.56502 107.44765 24795 ft 436 kts 103°
2026-04-22 09:52 -6.57002 107.47774 25089 ft 437 kts 96°
2026-04-22 09:53 -6.57357 107.50820 25385 ft 440 kts 96°
2026-04-22 09:53 -6.57715 107.53873 25674 ft 442 kts 96°
2026-04-22 09:53 -6.58082 107.56953 25964 ft 443 kts 96°
2026-04-22 09:53 -6.58452 107.60032 26239 ft 445 kts 96°
2026-04-22 09:54 -6.58826 107.63137 26511 ft 447 kts 96°
2026-04-22 09:54 -6.59201 107.66241 26727 ft 449 kts 96°
2026-04-22 09:54 -6.59574 107.69340 26790 ft 441 kts 96°
2026-04-22 09:54 -6.59938 107.72389 26794 ft 436 kts 96°
2026-04-22 09:55 -6.60294 107.75403 26794 ft 434 kts 96°
2026-04-22 09:55 -6.60650 107.78415 26802 ft 433 kts 96°
2026-04-22 09:55 -6.61006 107.81423 26794 ft 433 kts 96°
2026-04-22 09:55 -6.61365 107.84437 26794 ft 433 kts 96°
2026-04-22 09:56 -6.61723 107.87451 26794 ft 433 kts 96°
2026-04-22 09:56 -6.62081 107.90451 26794 ft 433 kts 96°
2026-04-22 09:56 -6.62440 107.93457 26793 ft 433 kts 96°
2026-04-22 09:56 -6.62793 107.96424 26792 ft 433 kts 96°
2026-04-22 09:57 -6.63146 107.99430 26790 ft 433 kts 96°
2026-04-22 09:57 -6.63497 108.02435 26789 ft 433 kts 96°
2026-04-22 09:57 -6.63852 108.05439 26790 ft 432 kts 96°
2026-04-22 09:57 -6.64208 108.08440 26790 ft 432 kts 96°
2026-04-22 09:58 -6.64564 108.11440 26790 ft 432 kts 96°
2026-04-22 09:58 -6.64919 108.14440 26790 ft 432 kts 96°
2026-04-22 09:58 -6.65272 108.17440 26790 ft 432 kts 96°
2026-04-22 09:58 -6.65626 108.20442 26791 ft 432 kts 96°
2026-04-22 09:59 -6.65981 108.23444 26790 ft 432 kts 96°
2026-04-22 09:59 -6.66333 108.26445 26791 ft 432 kts 96°
2026-04-22 09:59 -6.66685 108.29439 26791 ft 432 kts 96°
2026-04-22 09:59 -6.67038 108.32439 26791 ft 432 kts 96°
2026-04-22 10:00 -6.67389 108.35439 26792 ft 432 kts 96°
2026-04-22 10:00 -6.67741 108.38438 26793 ft 432 kts 96°
2026-04-22 10:00 -6.68095 108.41436 26795 ft 432 kts 96°
2026-04-22 10:00 -6.68449 108.44435 26796 ft 432 kts 96°
2026-04-22 10:01 -6.68802 108.47436 26805 ft 432 kts 96°
2026-04-22 10:01 -6.69151 108.50436 26799 ft 432 kts 96°
2026-04-22 10:01 -6.69496 108.53437 26800 ft 432 kts 96°
2026-04-22 10:01 -6.69845 108.56436 26799 ft 431 kts 96°
2026-04-22 10:02 -6.70245 108.59386 26799 ft 432 kts 97°
2026-04-22 10:02 -6.70713 108.62369 26800 ft 432 kts 98°
2026-04-22 10:02 -6.71218 108.65346 26798 ft 432 kts 99°
2026-04-22 10:02 -6.71733 108.68315 26801 ft 432 kts 99°
2026-04-22 10:03 -6.72247 108.71298 26802 ft 432 kts 98°
2026-04-22 10:03 -6.72744 108.74270 26805 ft 432 kts 98°
2026-04-22 10:03 -6.73227 108.77251 26807 ft 432 kts 98°
2026-04-22 10:03 -6.73700 108.80232 26809 ft 432 kts 98°
2026-04-22 10:04 -6.74165 108.83194 26607 ft 425 kts 98°
2026-04-22 10:04 -6.74624 108.86113 26357 ft 421 kts 98°
2026-04-22 10:04 -6.75079 108.89009 26106 ft 418 kts 98°
2026-04-22 10:04 -6.75537 108.91890 25855 ft 416 kts 98°
2026-04-22 10:05 -6.75996 108.94758 25605 ft 414 kts 98°
2026-04-22 10:05 -6.76453 108.97615 25351 ft 413 kts 98°
2026-04-22 10:05 -6.76911 109.00455 25103 ft 411 kts 98°
2026-04-22 10:05 -6.77369 109.03290 24837 ft 407 kts 98°
2026-04-22 10:06 -6.77819 109.06082 24386 ft 402 kts 98°
2026-04-22 10:06 -6.78259 109.08839 23912 ft 398 kts 98°
2026-04-22 10:06 -6.78692 109.11577 23455 ft 393 kts 98°
2026-04-22 10:06 -6.79120 109.14282 22986 ft 390 kts 98°
2026-04-22 10:07 -6.79523 109.16967 22517 ft 386 kts 97°
2026-04-22 10:07 -6.79900 109.19633 22054 ft 383 kts 97°
2026-04-22 10:07 -6.80263 109.22283 21581 ft 381 kts 97°
2026-04-22 10:07 -6.80623 109.24916 21113 ft 378 kts 97°
2026-04-22 10:08 -6.80984 109.27534 20632 ft 377 kts 97°
2026-04-22 10:08 -6.81347 109.30136 20159 ft 375 kts 97°
2026-04-22 10:08 -6.81710 109.32720 19678 ft 373 kts 97°
2026-04-22 10:08 -6.82074 109.35302 19198 ft 371 kts 97°
2026-04-22 10:09 -6.82434 109.37862 18721 ft 369 kts 97°
2026-04-22 10:09 -6.82794 109.40415 18245 ft 368 kts 97°
2026-04-22 10:09 -6.83153 109.42957 17779 ft 366 kts 97°
2026-04-22 10:09 -6.83512 109.45489 17302 ft 365 kts 97°
2026-04-22 10:10 -6.83870 109.48009 16838 ft 363 kts 97°
2026-04-22 10:10 -6.84224 109.50513 16384 ft 361 kts 97°
2026-04-22 10:10 -6.84576 109.53009 15916 ft 360 kts 97°
2026-04-22 10:10 -6.84921 109.55469 15481 ft 359 kts 97°
2026-04-22 10:11 -6.85270 109.57947 15023 ft 357 kts 97°
2026-04-22 10:11 -6.85614 109.60416 14574 ft 356 kts 97°
2026-04-22 10:11 -6.85963 109.62873 14155 ft 353 kts 97°
2026-04-22 10:11 -6.86305 109.65297 13838 ft 348 kts 97°
2026-04-22 10:12 -6.86641 109.67702 13403 ft 346 kts 97°
2026-04-22 10:12 -6.86974 109.70098 12951 ft 345 kts 97°
2026-04-22 10:12 -6.87305 109.72481 12501 ft 344 kts 97°
2026-04-22 10:12 -6.87561 109.74329 12149 ft 343 kts 97°
2026-04-22 10:13 -6.87805 109.76077 11810 ft 342 kts 97°
2026-04-22 10:13 -6.88138 109.78443 11352 ft 341 kts 97°
2026-04-22 10:13 -6.88472 109.80799 10895 ft 340 kts 97°
2026-04-22 10:13 -6.88801 109.83148 10442 ft 339 kts 97°
2026-04-22 10:14 -6.89127 109.85483 10190 ft 331 kts 97°
2026-04-22 10:14 -6.89400 109.87739 10067 ft 319 kts 91°
2026-04-22 10:14 -6.89238 109.89909 9916 ft 307 kts 78°
2026-04-22 10:14 -6.88849 109.92008 9496 ft 307 kts 78°
2026-04-22 10:15 -6.88455 109.94106 9203 ft 302 kts 78°
2026-04-22 10:15 -6.88068 109.96179 8822 ft 301 kts 78°
2026-04-22 10:15 -6.87688 109.98231 8267 ft 296 kts 78°
2026-04-22 10:15 -6.87313 110.00259 7613 ft 294 kts 78°
2026-04-22 10:16 -6.86943 110.02267 7036 ft 288 kts 78°
2026-04-22 10:16 -6.86579 110.04231 6570 ft 286 kts 78°
2026-04-22 10:16 -6.86215 110.06200 6103 ft 286 kts 78°
2026-04-22 10:16 -6.85855 110.08151 5631 ft 281 kts 78°
2026-04-22 10:17 -6.85501 110.10070 5106 ft 277 kts 78°
2026-04-22 10:17 -6.85266 110.11332 4773 ft 276 kts 78°
2026-04-22 10:17 -6.84910 110.13240 4266 ft 279 kts 78°
2026-04-22 10:17 -6.84552 110.15156 3885 ft 277 kts 78°
2026-04-22 10:18 -6.84209 110.17002 3750 ft 257 kts 79°
2026-04-22 10:18 -6.83897 110.18689 3626 ft 240 kts 79°
2026-04-22 10:18 -6.83759 110.20324 3517 ft 231 kts 95°
2026-04-22 10:18 -6.84178 110.21846 3403 ft 223 kts 117°
2026-04-22 10:19 -6.85051 110.23094 3302 ft 215 kts 130°
2026-04-22 10:19 -6.86018 110.24234 3065 ft 214 kts 130°
2026-04-22 10:19 -6.86983 110.25376 2800 ft 213 kts 130°
2026-04-22 10:19 -6.87913 110.26476 2532 ft 199 kts 131°
2026-04-22 10:20 -6.88783 110.27506 2264 ft 187 kts 131°
2026-04-22 10:20 -6.89599 110.28472 2031 ft 175 kts 131°
2026-04-22 10:20 -6.90360 110.29373 1797 ft 164 kts 131°
2026-04-22 10:20 -6.91081 110.30227 1587 ft 157 kts 130°
2026-04-22 10:21 -6.91779 110.31053 1383 ft 153 kts 130°
2026-04-22 10:21 -6.92451 110.31850 1190 ft 147 kts 130°
2026-04-22 10:21 -6.93111 110.32631 993 ft 147 kts 129°
2026-04-22 10:21 -6.93773 110.33416 797 ft 147 kts 129°
2026-04-22 10:22 -6.94431 110.34197 612 ft 146 kts 129°
2026-04-22 10:22 -6.95083 110.34983 406 ft 146 kts 129°
2026-04-22 10:22 -6.95737 110.35758 200 ft 145 kts 130°
2026-04-22 10:22 -6.96389 110.36530 16 ft 143 kts 130°
2026-04-22 10:23 -6.96959 110.37203 5 ft 105 kts 130°
2026-04-22 10:23 -6.97321 110.37630 7 ft 49 kts 130°
2026-04-22 10:23 -6.97470 110.37806 8 ft 25 kts 130°
2026-04-22 10:23 -6.97563 110.37906 6 ft 14 kts 156°
2026-04-22 10:24 -6.97570 110.37924 6 ft 5 kts 306°
2026-04-22 10:24 -6.97537 110.37882 7 ft 10 kts 313°
2026-04-22 10:24 -6.97478 110.37816 7 ft 15 kts 310°
2026-04-22 10:24 -6.97395 110.37718 5 ft 21 kts 310°
2026-04-22 10:25 -6.97295 110.37599 5 ft 23 kts 310°
2026-04-22 10:25 -6.97194 110.37480 4 ft 18 kts 310°
2026-04-22 10:25 -6.97098 110.37425 5 ft 17 kts 19°
2026-04-22 10:25 -6.97031 110.37474 16 ft 8 kts 40°
2026-04-22 10:26 -6.96983 110.37515 17 ft 8 kts 40°
2026-04-22 10:26 -6.96950 110.37543 18 ft 5 kts 40°
2026-04-22 10:26 -6.96914 110.37562 18 ft 7 kts
2026-04-22 10:26 -6.96871 110.37521 20 ft 12 kts 310°
2026-04-22 10:27 -6.96822 110.37462 18 ft 10 kts 310°
2026-04-22 10:27 -6.96781 110.37414 19 ft 6 kts 317°
2026-04-22 10:27 -6.96750 110.37424 20 ft 4 kts 39°
2026-04-22 10:27 -6.96733 110.37439 19 ft 3 kts 40°
2026-04-22 10:28 -6.96723 110.37448 20 ft 1 kts 40°
2026-04-22 10:28 -6.96715 110.37454 19 ft 1 kts 40°
2026-04-22 10:28 -6.96711 110.37457 19 ft 1 kts 40°
2026-04-22 10:28 -6.96710 110.37458 19 ft 0 kts 40°